Probability
55 61 65 55 58 61 58 61 65 61 61 58 58 52 45 55 58 58 48 52 52 55 52 52 52 48 35 39 35 32 32 29 32 26 23 19 19 16 13 19 19 19 13
48 52 58 61 58 52 58 61 65 58 61 55 45 48 48 55 55 52 52 45 48 48 52 52 45 35 35 35 32 32 32 32 32 26 26 26 23 19 19 19 19 13 16
52 55 52 61 61 58 55 55 55 52 52 48 52 48 48 45 48 48 48 45 48 48 52 52 45 42 42 32 32 32 29 26 32 23 23 19 13 19 23 19 16 13 6
55 48 52 52 58 52 48 48 52 52 45 48 45 52 48 48 45 48 48 45 45 45 42 42 45 32 29 29 26 26 26 26 26 16 16 10 10 13 16 19 13 16 13
61 55 58 52 52 48 48 52 52 52 48 45 48 45 45 48 39 45 45 42 42 39 39 39 32 19 13 16 19 23 23 23 19 13 13 6 10 10 6 13 10 6 10
65 55 48 52 55 52 48 45 45 45 42 42 39 42 35 26 16 16 26 35 42 35 35 32 26 16 6 3 3 6 6 19 23 23 13 10 16 10 13 10 10 6 6
61 58 55 52 52 52 45 48 45 45 48 45 42 35 39 32 10 3 3 32 39 42 42 39 19 10 13 19 3 3 3 6 6 23 19 23 16 16 16 6 19 10 13
55 52 55 52 52 52 52 52 48 48 42 42 39 39 39 29 6 3 3 19 29 39 35 35 35 26 6 10 10 10 13 16 6 13 13 13 10 13 16 13 13 13 16
52 52 52 52 48 48 48 45 45 45 42 42 42 35 35 35 6 0 0 26 32 29 32 23 23 19 3 0 6 3 6 10 0 0 0 0 0 0 3 6 6 6 6
52 48 48 52 52 45 42 42 45 45 45 42 42 45 35 32 19 3 0 26 32 29 32 32 3 6 0 0 10 6 6 10 6 6 3 0 3 3 0 3 6 6 6
45 45 48 48 48 48 42 42 45 42 45 42 35 39 35 26 19 3 0 23 26 26 23 26 16 0 0 0 0 6 6 10 10 10 10 10 6 10 6 6 6 6 6
39 42 45 42 35 29 39 35 32 39 39 35 35 32 26 26 23 10 0 0 10 26 29 26 13 0 0 0 0 0 0 0 3 0 3 3 6 6 6 10 10 6 10
35 39 35 35 35 29 32 32 32 35 26 23 29 26 26 26 23 10 0 0 0 16 26 6 0 0 0 0 0 0 0 0 3 3 3 3 6 3 6 13 13 13 13
32 32 32 29 29 29 32 26 23 19 16 19 23 23 26 23 19 13 13 6 0 0 10 0 0 0 0 0 0 0 0 3 3 3 3 3 6 6 6 6 6 10 10
35 26 26 23 19 19 19 23 23 23 16 16 13 16 23 26 23 10 13 19 16 16 13 13 6 6 6 10 13 6 6 6 3 3 3 6 3 3 6 10 10 10 3
32 32 16 16 13 13 16 16 13 16 10 6 6 13 19 3 0 0 0 0 0 0 3 10 10 6 10 10 10 10 13 10 3 3 3 6 6 3 3 3 10 10 6
29 26 19 16 16 13 16 16 16 13 0 0 0 0 0 0 0 0 0 0 0 0 6 10 10 10 10 10 6 10 10 10 10 6 3 6 6 6 3 3 6 6 10
19 13 19 23 19 19 16 19 19 19 19 13 0 0 0 0 0 0 0 0 0 0 6 10 10 10 10 10 13 13 10 10 13 10 10 6 6 6 6 6 6 6 10
16 16 16 13 23 13 13 13 13 16 19 23 19 0 0 0 0 0 0 0 3 3 3 10 6 10 13 16 16 16 13 16 13 6 6 10 10 6 3 3 3 3 0
13 13 13 13 13 16 13 13 13 16 16 19 19 13 0 0 0 0 0 0 3 10 10 10 10 10 6 10 13 13 13 10 6 6 6 6 6 6 6 6 6 3 6
10 10 6 13 13 13 16 13 13 13 16 23 16 13 0 3 3 3 0 0 3 6 6 6 6 6 3 10 13 10 6 3 6 10 6 10 6 6 10 10 6 3 3
6 6 10 10 10 10 10 13 13 13 13 16 16 10 0 3 6 3 3 6 3 6 6 6 6 10 10 6 10 6 6 6 6 6 6 6 3 3 6 6 6 6 6
3 6 6 10 10 6 10 10 10 10 10 10 16 10 0 10 6 3 3 6 3 10 6 6 10 10 10 3 6 6 6 6 6 3 6 6 6 6 6 3 3 6 6
0 3 6 6 10 10 10 6 6 6 10 10 13 10 6 6 6 6 3 3 6 6 6 6 3 3 3 0 0 0 3 3 3 3 3 6 6 6 3 3 3 3 3
0 0 3 3 6 10 10 6 6 3 3 6 3 6 3 0 0 3 3 3 3 6 3 3 3 3 0 0 0 0 0 0 0 0 3 3 3 3 3 3 3 3 3
0 0 3 3 3 3 6 3 3 3 3 3 3 3 3 0 0 3 3 3 0 3 3 3 3 0 0 0 0 0 0 0 0 0 0 0 3 3 3 3 3 3 3
Height
5890 5889 5889 5888 5888 5887 5886 5885 5884 5882 5881 5880 5879 5878 5876 5875 5874 5872 5871 5869 5867 5866 5864 5863 5861 5860 5858 5857 5855 5854 5852 5851 5850 5848 5846 5844 5843 5841 5839 5837 5835 5833 5832
5886 5886 5885 5884 5884 5884 5883 5882 5881 5880 5878 5877 5875 5874 5872 5871 5869 5868 5867 5865 5864 5862 5861 5859 5858 5856 5855 5853 5851 5850 5848 5847 5845 5844 5842 5840 5838 5837 5835 5833 5831 5829 5827
5882 5881 5881 5880 5880 5879 5879 5878 5877 5876 5874 5873 5872 5870 5868 5867 5865 5864 5862 5861 5860 5858 5857 5855 5853 5852 5850 5849 5847 5845 5844 5842 5840 5839 5837 5835 5833 5832 5830 5828 5826 5824 5822
5878 5877 5876 5876 5875 5875 5874 5873 5873 5872 5870 5869 5868 5866 5864 5862 5861 5859 5858 5857 5855 5853 5852 5850 5848 5847 5845 5844 5842 5840 5838 5837 5835 5833 5831 5830 5828 5826 5824 5823 5821 5819 5817
5873 5872 5871 5871 5870 5870 5869 5868 5868 5867 5865 5864 5863 5861 5859 5858 5856 5855 5853 5852 5850 5848 5847 5845 5843 5842 5840 5839 5837 5835 5833 5832 5830 5828 5826 5824 5822 5820 5819 5817 5815 5813 5811
5868 5867 5866 5865 5865 5864 5863 5862 5862 5861 5860 5859 5858 5856 5854 5853 5852 5849 5848 5846 5845 5843 5842 5840 5838 5836 5834 5833 5831 5830 5828 5826 5824 5822 5820 5818 5816 5814 5812 5810 5808 5807 5805
5863 5862 5861 5861 5860 5859 5858 5857 5856 5855 5854 5853 5852 5850 5848 5847 5845 5843 5841 5840 5839 5837 5835 5833 5832 5830 5829 5827 5825 5824 5822 5820 5818 5816 5814 5812 5810 5808 5806 5804 5802 5800 5798
5858 5857 5856 5855 5854 5853 5852 5850 5849 5848 5847 5846 5846 5844 5842 5840 5839 5837 5835 5833 5832 5830 5828 5826 5825 5824 5822 5820 5818 5817 5815 5813 5811 5809 5807 5805 5803 5801 5799 5797 5795 5793 5791
5852 5852 5850 5849 5848 5847 5845 5844 5842 5841 5841 5840 5839 5837 5836 5834 5833 5831 5828 5827 5826 5824 5822 5820 5819 5818 5816 5813 5811 5809 5807 5805 5803 5802 5800 5798 5796 5794 5792 5790 5787 5785 5783
5847 5845 5844 5843 5842 5841 5839 5837 5836 5835 5834 5833 5832 5831 5829 5827 5826 5824 5822 5820 5819 5818 5816 5814 5812 5810 5808 5806 5804 5802 5800 5798 5796 5794 5792 5790 5787 5786 5784 5781 5779 5776 5774
5840 5839 5837 5836 5835 5834 5833 5831 5830 5828 5827 5826 5825 5823 5822 5820 5818 5817 5815 5814 5812 5810 5808 5806 5805 5803 5800 5798 5796 5794 5792 5790 5788 5786 5783 5781 5779 5777 5775 5772 5770 5768 5766
5833 5831 5830 5829 5827 5827 5826 5824 5823 5821 5820 5819 5817 5816 5814 5812 5810 5809 5807 5806 5804 5802 5801 5799 5797 5795 5793 5791 5788 5786 5784 5782 5780 5778 5775 5773 5771 5768 5766 5764 5761 5759 5757
5825 5824 5822 5821 5820 5819 5818 5817 5816 5815 5813 5812 5810 5808 5806 5805 5803 5801 5800 5799 5797 5795 5793 5791 5790 5788 5786 5783 5781 5778 5776 5774 5771 5769 5767 5765 5762 5760 5757 5755 5752 5750 5748
5817 5816 5815 5813 5812 5811 5810 5810 5808 5807 5806 5805 5803 5801 5799 5797 5796 5794 5793 5791 5789 5787 5786 5784 5782 5780 5778 5775 5773 5771 5768 5766 5763 5761 5758 5755 5753 5751 5748 5745 5743 5740 5738
5809 5808 5807 5806 5805 5804 5803 5802 5801 5800 5799 5797 5796 5794 5792 5790 5789 5787 5786 5784 5782 5780 5778 5776 5774 5772 5770 5767 5765 5762 5760 5757 5755 5752 5749 5747 5744 5742 5739 5736 5733 5731 5728
5801 5800 5798 5797 5797 5796 5794 5794 5792 5792 5790 5789 5787 5786 5784 5783 5781 5780 5778 5776 5774 5772 5770 5768 5766 5764 5762 5759 5756 5754 5751 5749 5746 5743 5740 5738 5735 5733 5730 5727 5724 5721 5719
5793 5791 5790 5789 5788 5787 5786 5785 5784 5783 5781 5780 5779 5777 5776 5774 5773 5771 5769 5768 5765 5763 5761 5759 5757 5755 5753 5750 5748 5745 5742 5740 5737 5734 5732 5729 5726 5724 5721 5718 5715 5712 5709
5784 5783 5781 5780 5779 5778 5777 5776 5775 5774 5773 5771 5770 5769 5767 5766 5764 5762 5760 5759 5757 5755 5753 5751 5749 5747 5744 5742 5739 5736 5733 5731 5728 5726 5723 5720 5718 5715 5712 5709 5706 5703 5700
5775 5774 5773 5771 5770 5769 5767 5766 5765 5764 5763 5762 5761 5760 5758 5757 5756 5754 5752 5750 5748 5747 5744 5742 5740 5738 5735 5733 5730 5728 5725 5723 5720 5717 5714 5711 5708 5705 5702 5699 5696 5693 5690
5766 5765 5763 5762 5760 5760 5759 5757 5756 5755 5754 5753 5752 5751 5750 5748 5747 5745 5743 5741 5740 5738 5736 5734 5732 5729 5727 5725 5722 5719 5717 5714 5712 5709 5705 5702 5699 5696 5693 5689 5686 5683 5680
5756 5755 5754 5753 5751 5750 5749 5748 5747 5746 5745 5744 5743 5742 5741 5739 5738 5736 5735 5733 5731 5729 5727 5725 5723 5721 5718 5716 5714 5711 5708 5705 5702 5699 5696 5693 5689 5686 5683 5680 5677 5673 5671
5746 5745 5744 5743 5742 5741 5740 5739 5738 5737 5736 5735 5734 5733 5732 5730 5729 5727 5726 5724 5722 5721 5719 5716 5714 5712 5710 5707 5705 5702 5699 5696 5693 5690 5686 5683 5680 5677 5673 5670 5667 5664 5661
5736 5735 5734 5734 5733 5732 5731 5730 5729 5728 5726 5725 5724 5723 5722 5721 5720 5718 5717 5715 5713 5712 5709 5707 5705 5703 5700 5698 5695 5693 5690 5687 5683 5680 5677 5674 5670 5667 5664 5660 5657 5654 5651
5727 5726 5725 5724 5723 5722 5721 5720 5719 5718 5717 5716 5715 5714 5713 5712 5711 5710 5708 5706 5704 5702 5700 5698 5696 5694 5691 5688 5686 5683 5680 5677 5673 5670 5667 5664 5661 5657 5654 5651 5647 5644 5641
5718 5717 5716 5715 5714 5713 5712 5711 5710 5709 5708 5707 5706 5705 5704 5703 5702 5701 5699 5697 5695 5693 5691 5689 5687 5684 5681 5679 5676 5673 5670 5667 5664 5661 5657 5654 5651 5648 5644 5641 5637 5634 5631
5709 5708 5707 5706 5705 5704 5703 5702 5702 5701 5699 5698 5697 5696 5695 5694 5693 5691 5690 5688 5686 5684 5682 5679 5677 5674 5672 5669 5666 5663 5660 5658 5654 5651 5647 5644 5641 5638 5634 5631 5627 5624 5621
Wind_Speed
14 14 14 14 14 14 13 13 13 13 13 12 13 13 13 14 14 14 15 15 15 14 13 14 14 14 14 15 15 15 15 16 16 16 16 16 16 16 17 17 17 17 18
16 16 16 15 15 16 15 14 13 13 14 14 13 13 14 15 15 16 16 16 16 15 15 15 16 15 16 16 16 16 17 17 17 17 17 18 18 17 18 18 18 19 19
18 18 18 17 17 17 16 16 15 15 15 15 14 14 15 16 17 17 17 17 17 16 16 17 17 18 18 18 18 18 19 19 19 19 19 20 20 19 20 20 20 20 20
19 19 19 18 18 18 18 18 18 17 18 17 17 17 17 17 18 18 18 18 18 18 18 18 18 19 19 19 19 20 20 21 21 20 20 21 21 21 21 21 21 21 22
19 19 19 20 19 19 20 19 20 19 19 19 19 19 19 19 19 19 19 19 20 20 20 20 20 20 20 21 21 21 21 22 22 22 23 23 23 23 23 23 22 23 23
20 19 19 20 20 21 21 21 21 21 21 21 21 21 21 21 21 21 21 21 22 22 22 22 22 21 21 22 22 22 23 23 24 24 24 24 24 24 25 24 24 24 24
19 19 19 19 20 21 22 23 23 23 24 23 23 23 23 23 23 23 24 24 23 24 23 23 23 22 23 23 24 24 24 24 25 25 25 26 26 26 26 26 26 25 25
19 20 20 20 21 23 23 24 24 24 24 24 24 24 25 24 23 24 25 24 24 24 24 24 24 24 25 26 26 26 26 26 26 26 27 27 27 27 27 27 27 27 27
21 21 21 21 22 22 23 23 23 24 24 24 25 25 25 25 25 25 25 25 25 26 26 26 26 27 28 28 27 27 27 28 28 28 28 29 29 29 29 29 29 29 29
23 23 23 23 23 23 23 23 24 25 25 25 25 25 26 26 26 26 26 27 27 27 28 29 29 29 30 29 28 28 28 29 29 30 30 30 30 30 30 30 31 31 31
25 25 25 25 24 24 24 24 24 25 25 25 26 27 27 27 27 26 27 28 29 29 29 30 30 29 30 29 28 28 29 29 29 30 30 30 31 31 31 31 31 31 31
26 26 26 26 26 25 24 25 24 24 24 26 27 28 27 27 27 27 28 29 30 30 30 29 29 29 30 30 29 30 30 30 30 30 30 31 31 31 31 31 31 31 31
27 27 27 27 27 26 25 25 25 25 25 26 27 27 28 28 28 28 27 28 29 29 29 29 30 30 30 30 29 29 30 30 30 31 31 31 31 31 32 32 31 31 32
27 27 28 28 28 28 27 27 27 27 27 27 28 28 28 28 28 28 28 28 29 29 30 30 30 31 32 31 30 30 30 30 30 31 31 30 31 31 32 32 32 32 32
27 28 28 28 28 29 29 29 28 28 29 29 29 28 28 28 28 28 29 29 29 30 30 30 30 30 30 31 31 30 30 31 31 31 31 31 31 32 32 32 33 33 32
28 29 29 28 28 29 29 29 30 29 30 30 29 29 28 28 29 30 30 31 31 31 31 30 30 30 30 31 31 31 31 31 31 32 31 31 31 32 31 31 31 31 31
28 28 28 28 28 29 29 29 30 29 29 29 30 30 30 30 30 30 30 31 31 31 31 30 30 29 30 31 31 31 31 32 32 32 31 31 31 31 31 31 30 31 31
27 28 28 28 29 30 30 30 29 29 29 29 30 30 29 29 30 30 30 30 30 30 31 30 29 29 30 31 31 31 30 30 30 30 31 31 31 31 31 32 32 32 32
28 28 29 29 29 29 30 29 29 30 29 29 30 30 29 29 30 30 30 29 29 29 30 30 30 30 31 31 30 30 29 29 29 30 30 31 31 31 32 32 33 33 32
29 29 29 29 28 29 29 30 30 30 30 29 29 30 30 30 30 29 29 29 30 30 30 30 30 31 31 31 30 30 30 30 30 31 32 32 32 32 32 32 32 32 32
31 31 30 30 30 30 30 30 30 30 30 29 29 29 29 29 29 30 29 29 30 30 30 30 30 30 31 31 31 31 31 31 32 32 33 33 32 32 32 32 31 31 31
31 31 31 30 30 29 30 30 30 30 29 29 29 29 29 29 29 29 29 30 30 30 30 30 30 30 31 31 32 32 32 32 32 32 32 32 32 32 32 31 31 31 31
30 30 30 30 30 30 30 30 29 30 30 29 29 29 29 29 29 29 29 30 30 30 30 30 29 30 30 31 32 33 33 33 33 33 33 33 32 32 32 32 31 32 32
28 29 29 29 29 29 29 29 29 29 29 29 28 28 29 29 29 30 30 30 30 30 30 30 30 31 31 32 32 33 33 33 33 33 33 33 33 33 33 32 32 32 32
28 28 28 28 29 28 28 28 29 29 28 28 29 29 30 30 31 31 31 31 31 31 31 31 31 32 32 33 33 33 33 33 33 33 34 34 34 33 33 33 33 33 32
27 28 28 28 27 27 27 28 29 28 29 29 29 29 30 30 30 30 31 31 31 31 31 31 32 32 33 33 33 33 32 33 34 34 34 34 34 33 33 32 32 32 32
Wind_Direction
278 277 273 270 273 279 282 286 286 286 285 287 289 288 289 288 289 291 292 294 296 296 296 297 298 297 297 296 297 298 299 300 302 302 301 301 302 303 303 303 304 305 304
277 275 273 270 270 272 276 281 283 283 284 287 288 286 289 290 288 290 290 294 295 296 295 296 295 294 295 295 294 295 297 298 299 300 301 301 302 302 301 301 300 302 302
278 275 272 269 269 271 272 275 280 282 284 287 290 289 292 294 292 289 290 294 294 295 295 294 294 292 292 292 292 292 293 294 295 297 298 299 300 300 300 299 299 300 301
280 277 273 272 270 267 269 273 278 280 281 283 285 287 290 292 293 290 289 289 292 293 294 294 294 293 291 291 291 291 292 293 293 294 296 297 296 297 299 299 298 298 299
281 280 276 274 272 270 269 271 275 279 278 278 281 283 287 290 291 290 289 289 289 291 292 292 293 292 290 290 291 291 293 294 294 294 295 296 295 294 296 297 297 297 297
280 282 278 275 273 273 271 270 272 276 277 277 279 283 287 289 290 290 288 285 286 288 289 290 291 291 291 289 289 291 292 293 292 292 295 295 294 295 296 296 294 295 294
279 281 282 280 280 279 277 276 276 275 275 278 278 280 284 287 288 288 289 285 285 286 286 288 290 292 291 291 289 289 290 290 290 291 292 294 293 293 294 294 295 295 294
281 283 285 285 284 282 281 280 279 277 276 276 279 281 282 286 286 287 289 287 285 286 285 286 289 290 290 290 290 289 290 291 291 291 292 293 293 294 294 294 294 293 293
282 283 284 284 284 285 284 280 279 279 279 277 278 280 282 285 285 285 284 284 286 285 286 286 287 289 291 290 290 290 291 291 291 292 292 292 292 292 293 293 293 292 291
282 282 283 284 283 283 285 283 280 278 278 278 279 280 283 285 285 283 283 284 285 286 286 286 288 289 289 290 291 291 291 292 292 292 292 292 292 292 292 292 292 291 291
283 283 282 283 284 282 281 286 285 282 279 279 281 282 284 284 283 282 282 283 285 285 286 288 289 290 290 290 292 293 292 291 293 296 294 292 291 290 291 293 293 292 292
281 282 282 282 282 281 281 284 285 283 283 282 282 282 283 283 283 282 282 285 288 288 287 288 289 290 291 291 292 292 291 291 293 296 296 294 292 291 291 292 292 292 292
282 282 282 281 280 278 279 282 283 283 284 284 284 284 285 283 283 283 285 288 288 288 288 289 290 290 291 291 293 294 293 292 293 294 295 294 292 292 291 291 292 292 292
283 283 282 281 279 279 279 280 282 282 284 285 286 287 287 284 284 284 286 286 288 289 288 288 289 290 291 291 291 292 292 292 294 295 295 294 293 293 293 292 292 292 292
283 283 281 280 279 278 279 279 279 281 284 285 284 285 287 286 285 285 288 290 290 290 290 290 290 291 292 292 293 293 293 293 294 295 296 295 295 296 296 294 292 292 291
280 280 279 279 278 279 280 281 280 281 282 283 283 283 284 286 286 285 287 288 289 291 291 292 291 292 293 295 295 294 294 295 295 295 295 295 296 297 298 298 296 293 292
280 279 278 278 278 279 280 280 280 280 282 283 284 284 283 284 286 286 287 288 289 290 290 290 291 292 294 295 295 294 294 295 295 295 296 297 297 296 296 296 296 295 294
278 279 279 278 276 276 278 278 279 280 281 282 283 284 283 284 287 288 289 289 289 289 289 290 291 293 294 295 295 295 295 295 296 297 298 297 297 297 296 296 295 295 294
278 278 279 277 277 277 278 278 279 282 281 282 284 285 285 284 285 286 287 289 290 290 291 292 293 294 294 295 296 296 296 296 297 298 298 299 299 298 297 297 297 296 295
278 278 278 279 279 280 280 281 281 281 281 281 282 283 284 285 284 285 286 288 290 291 292 293 294 294 294 295 296 296 296 296 297 298 299 299 299 299 299 298 298 296 294
278 277 278 279 281 281 281 280 281 281 281 282 282 282 283 284 284 284 284 287 289 291 293 294 294 294 294 294 295 295 295 295 296 298 298 298 298 299 300 299 297 295 293
279 279 278 278 280 279 279 279 280 280 280 281 281 281 282 284 285 286 287 287 289 292 294 293 293 294 294 294 295 295 296 296 297 298 298 300 301 299 298 297 296 295 293
277 277 277 277 278 279 279 279 280 281 281 281 281 281 282 284 285 288 290 291 291 292 294 294 293 294 294 294 294 294 295 296 297 298 299 301 301 300 299 297 297 295 293
277 277 278 277 277 278 278 278 280 280 280 279 280 280 281 283 286 288 289 292 292 292 293 293 293 294 294 294 294 294 295 296 297 298 299 299 300 301 300 298 297 296 294
277 278 278 277 277 277 277 278 279 280 279 278 279 280 281 282 284 286 287 288 290 292 292 292 293 294 294 295 295 296 297 298 298 298 299 299 300 300 300 299 297 295 294
280 280 278 278 277 277 278 278 279 280 280 279 280 280 281 282 284 285 286 287 289 290 291 291 292 294 294 295 297 297 297 298 298 298 298 299 299 299 299 299 298 296 294